period_start,C,m1,H,J0,J1,J2,J3,J4,J5,JA,JB,JC,JD,JJ,JK,JN,#
2018-03-26 00:03:08,0.26,5.72,0.00,23.46,27.25,30.33,13.77,49.24,1000.84,2023.90,1777.13,1916.08,2189.38,599.67,585.58,25.18,0000 0000 0000 0000 000000
2018-03-26 00:08:09,0.25,5.74,0.00,23.46,27.26,30.30,13.78,49.08,1000.75,2023.82,1774.56,1914.38,2187.36,600.06,585.95,25.23,0000 0000 0000 0000 000000
2018-03-26 00:13:10,0.27,5.75,0.00,23.47,27.27,30.34,13.79,49.03,1000.57,2023.86,1772.15,1912.66,2185.39,600.24,585.94,25.28,0000 0000 0000 0000 000000
2018-03-26 00:18:12,0.28,5.76,0.00,23.47,27.27,30.31,13.78,49.13,1000.50,2023.65,1769.24,1910.77,2183.16,600.27,585.91,25.33,0000 0000 0000 0000 000000
2018-03-26 00:23:13,0.29,5.78,0.00,23.47,27.27,30.33,13.72,49.12,1000.50,2023.55,1766.27,1908.82,2180.97,599.85,585.52,25.38,0000 0000 0000 0000 000000
2018-03-26 00:28:14,0.28,5.79,0.00,23.47,27.27,30.32,13.79,49.12,1000.49,2023.79,1763.80,1907.19,2179.14,600.02,585.63,25.43,0000 0000 0000 0000 000000
2018-03-26 00:33:15,0.25,5.80,0.00,23.48,27.27,30.30,13.79,48.97,1000.25,2023.57,1761.12,1905.36,2177.03,599.89,585.35,25.48,0000 0000 0000 0000 000000
2018-03-26 00:38:16,0.30,5.82,0.00,23.47,27.28,30.30,13.81,49.08,1000.04,2023.49,1758.32,1903.57,2174.97,600.19,585.67,25.53,0000 0000 0000 0000 000000
2018-03-26 00:43:18,0.24,5.83,0.00,23.49,27.30,30.31,13.75,49.16,1000.01,2023.74,1755.98,1902.02,2173.36,600.07,585.41,25.58,0000 0000 0000 0000 000000
2018-03-26 00:48:19,0.21,5.84,0.00,23.49,27.30,30.32,13.77,49.11,1000.01,2023.54,1753.80,1900.47,2171.50,600.00,585.27,25.63,0000 0000 0000 0000 000000
2018-03-26 00:53:20,0.25,5.85,0.00,23.50,27.30,30.32,13.81,49.16,999.97,2023.43,1751.36,1898.83,2169.68,600.10,585.39,25.68,0000 0000 0000 0000 000000
2018-03-26 00:58:21,0.24,5.87,0.00,23.51,27.30,30.33,13.69,49.17,999.89,2023.55,1749.29,1897.39,2168.01,599.87,585.08,25.73,0000 0000 0000 0000 000000
2018-03-26 01:03:23,0.21,5.88,0.00,23.52,27.31,30.35,13.65,49.25,999.66,2023.53,1747.16,1895.91,2166.37,599.91,584.99,25.78,0000 0000 0000 0000 000000
2018-03-26 01:08:24,0.23,5.89,0.00,23.54,27.32,30.34,13.82,49.35,999.53,2023.57,1745.20,1894.57,2164.79,600.25,585.25,25.83,0000 0000 0000 0000 000000
2018-03-26 01:13:25,0.14,5.90,0.00,23.55,27.32,30.34,13.69,49.26,999.53,2023.35,1743.38,1893.25,2163.33,599.86,584.90,25.88,0000 0000 0000 0000 000000
2018-03-26 01:18:26,0.21,5.91,0.00,23.55,27.33,30.36,13.72,49.39,999.53,2023.40,1741.60,1892.00,2161.86,599.97,584.84,25.93,0000 0000 0000 0000 000000
2018-03-26 01:23:28,0.19,5.92,0.00,23.57,27.35,30.35,13.72,49.48,999.53,2023.20,1739.83,1890.72,2160.47,599.84,584.67,25.98,0000 0000 0000 0000 000000
2018-03-26 01:28:29,0.17,5.93,0.00,23.59,27.35,30.40,13.72,49.63,999.50,2023.17,1738.14,1889.49,2159.03,599.81,584.71,26.03,0000 0000 0000 0000 000000
2018-03-26 01:33:30,0.18,5.94,0.00,23.60,27.35,30.39,13.73,49.83,999.53,2023.14,1736.42,1888.30,2157.64,599.92,584.76,26.08,0000 0000 0000 0000 000000
2018-03-26 01:38:32,0.18,5.95,0.00,23.62,27.37,30.37,13.71,49.76,999.41,2023.13,1734.75,1887.15,2156.32,599.68,584.46,26.13,0000 0000 0000 0000 000000
2018-03-26 01:43:33,0.18,5.95,0.00,23.63,27.37,30.39,13.71,49.63,999.43,2023.19,1733.11,1885.95,2155.02,600.08,584.78,26.18,0000 0000 0000 0000 000000
2018-03-26 01:48:35,0.16,5.96,0.00,23.65,27.37,30.40,13.78,49.76,999.09,2023.24,1731.61,1884.93,2153.82,600.24,584.72,26.23,0000 0000 0000 0000 000000
2018-03-26 01:53:36,0.16,5.97,0.00,23.67,27.39,30.39,13.71,49.69,999.04,2023.38,1730.35,1884.00,2152.74,599.83,584.22,26.28,0000 0000 0000 0000 000000
2018-03-26 01:58:37,0.17,5.98,0.00,23.70,27.40,30.39,13.76,49.48,999.04,2023.58,1728.94,1883.03,2151.57,600.10,584.44,26.33,0000 0000 0000 0000 000000
2018-03-26 02:03:38,0.12,5.99,0.00,23.71,27.40,30.41,13.74,49.57,999.04,2023.29,1727.66,1882.02,2150.42,600.02,584.26,26.38,0000 0000 0000 0000 000000
2018-03-26 02:08:39,0.13,5.99,0.00,23.73,27.41,30.40,13.81,49.52,999.04,2023.16,1726.42,1881.03,2149.27,600.68,584.86,26.43,0000 0000 0000 0000 000000
2018-03-26 02:13:40,0.14,6.00,0.00,23.75,27.42,30.43,13.69,49.52,998.79,2023.07,1724.97,1880.05,2148.07,599.85,583.94,26.49,0000 0000 0000 0000 000000
2018-03-26 02:18:41,0.16,6.01,0.00,23.77,27.42,30.47,13.74,49.50,998.61,2023.07,1723.60,1879.12,2146.93,600.52,584.41,26.54,0000 0000 0000 0000 000000
2018-03-26 02:23:42,0.16,6.02,0.00,23.80,27.45,30.47,13.72,49.46,998.58,2023.11,1722.29,1878.16,2145.81,599.98,583.88,26.59,0000 0000 0000 0000 000000
2018-03-26 02:28:44,0.14,6.02,0.00,23.82,27.45,30.47,13.65,49.44,998.55,2023.04,1720.87,1877.21,2144.72,599.82,583.68,26.64,0000 0000 0000 0000 000000
2018-03-26 02:33:45,0.15,6.03,0.00,23.85,27.46,30.50,13.70,49.41,998.49,2023.02,1719.51,1876.23,2143.57,600.22,583.98,26.69,0000 0000 0000 0000 000000
2018-03-26 02:38:46,0.14,6.04,0.00,23.87,27.47,30.50,13.68,49.36,998.46,2023.03,1718.13,1875.33,2142.43,599.97,583.69,26.74,0000 0000 0000 0000 000000
2018-03-26 02:43:47,0.16,6.05,0.00,23.89,27.49,30.52,13.63,49.35,998.11,2023.01,1716.75,1874.34,2141.26,599.88,583.37,26.79,0000 0000 0000 0000 000000
2018-03-26 02:48:49,0.14,6.05,0.00,23.91,27.50,30.53,13.64,49.18,998.07,2023.01,1715.47,1873.43,2140.16,599.99,583.45,26.84,0000 0000 0000 0000 000000
2018-03-26 02:53:50,0.15,6.06,0.00,23.94,27.52,30.56,13.70,49.26,998.07,2023.00,1714.04,1872.51,2138.98,600.00,583.43,26.89,0000 0000 0000 0000 000000
2018-03-26 02:58:51,0.14,6.07,0.00,23.97,27.53,30.55,13.68,49.36,998.06,2023.00,1712.71,1871.59,2137.90,599.95,583.21,26.94,0000 0000 0000 0000 000000
2018-03-26 03:03:52,0.15,6.08,0.00,23.99,27.55,30.56,13.62,49.52,997.95,2023.00,1711.41,1870.66,2136.81,599.75,582.98,26.99,0000 0000 0000 0000 000000
2018-03-26 03:08:53,0.16,6.08,0.00,24.02,27.57,30.58,13.73,49.50,997.59,2023.00,1709.96,1869.69,2135.66,599.79,582.67,27.04,0000 0000 0000 0000 000000
2018-03-26 03:13:55,0.17,6.09,0.00,24.05,27.58,30.61,13.65,49.68,997.53,2023.00,1708.48,1868.61,2134.47,599.85,582.57,27.09,0000 0000 0000 0000 000000
2018-03-26 03:18:56,0.17,6.10,0.00,24.06,27.60,30.62,13.66,49.69,997.57,2023.00,1706.76,1867.55,2133.11,599.67,582.56,27.14,0000 0000 0000 0000 000000
2018-03-26 03:23:57,0.15,6.11,0.00,24.11,27.62,30.64,13.70,49.57,997.56,2022.98,1705.43,1866.56,2131.96,599.66,582.40,27.19,0000 0000 0000 0000 000000
2018-03-26 03:28:59,0.13,6.12,0.00,24.14,27.64,30.65,13.69,49.45,997.57,2022.97,1704.20,1865.70,2130.81,600.33,582.93,27.24,0000 0000 0000 0000 000000
2018-03-26 03:34:00,0.16,6.13,0.00,24.17,27.66,30.67,13.59,49.60,997.57,2022.94,1702.67,1864.74,2129.67,599.72,582.31,27.29,0000 0000 0000 0000 000000
2018-03-26 03:39:02,0.14,6.13,0.00,24.19,27.68,30.69,13.65,49.53,997.57,2022.93,1701.26,1863.80,2128.52,599.58,582.14,27.34,0000 0000 0000 0000 000000
2018-03-26 03:44:03,0.12,6.14,0.00,24.21,27.70,30.72,13.67,49.71,997.55,2022.63,1699.74,1862.81,2127.39,599.96,582.45,27.39,0000 0000 0000 0000 000000
2018-03-26 03:49:04,0.12,6.15,0.00,24.23,27.72,30.75,13.69,49.61,997.18,2022.37,1698.31,1861.82,2126.28,600.24,582.46,27.44,0000 0000 0000 0000 000000
2018-03-26 03:54:06,0.14,6.15,0.00,24.26,27.75,30.76,13.64,49.85,997.09,2022.24,1696.87,1860.92,2125.11,599.84,582.01,27.49,0000 0000 0000 0000 000000
2018-03-26 03:59:07,0.16,6.16,0.00,24.30,27.76,30.76,13.75,49.81,996.84,2022.29,1695.42,1859.99,2123.99,600.04,581.90,27.54,0000 0000 0000 0000 000000
2018-03-26 04:04:09,0.16,6.17,0.00,24.34,27.79,30.80,13.65,49.79,996.63,2022.12,1693.78,1859.01,2122.79,599.70,581.42,27.59,0000 0000 0000 0000 000000
2018-03-26 04:09:10,0.15,6.18,0.00,24.37,27.81,30.83,13.68,49.88,996.60,2022.02,1692.35,1858.00,2121.62,599.85,581.47,27.64,0000 0000 0000 0000 000000
2018-03-26 04:14:11,0.16,6.19,0.00,24.39,27.83,30.85,13.62,49.66,996.70,2022.00,1690.83,1857.03,2120.48,600.01,581.64,27.69,0000 0000 0000 0000 000000
2018-03-26 04:19:12,0.16,6.20,0.00,24.41,27.86,30.87,13.66,49.60,997.07,2022.00,1689.38,1856.08,2119.34,599.98,581.74,27.74,0000 0000 0000 0000 000000
2018-03-26 04:24:13,0.16,6.20,0.00,24.44,27.88,30.90,13.67,49.69,997.02,2022.00,1687.89,1855.14,2118.13,600.23,581.93,27.79,0000 0000 0000 0000 000000
2018-03-26 04:29:15,0.16,6.21,0.00,24.46,27.91,30.90,13.62,49.67,996.67,2022.00,1686.43,1854.33,2116.88,600.07,581.58,27.84,0000 0000 0000 0000 000000
2018-03-26 04:34:16,0.17,6.22,0.00,24.49,27.93,30.94,13.58,49.70,996.60,2021.99,1684.85,1853.30,2115.71,599.94,581.32,27.89,0000 0000 0000 0000 000000
2018-03-26 04:39:17,0.16,6.23,0.00,24.52,27.96,30.96,13.65,49.78,996.60,2021.98,1683.38,1852.36,2114.61,599.89,581.20,27.94,0000 0000 0000 0000 000000
2018-03-26 04:44:18,0.17,6.24,0.00,24.54,27.98,30.97,13.66,49.75,996.54,2021.95,1681.80,1851.37,2113.44,599.84,581.00,27.99,0000 0000 0000 0000 000000
2018-03-26 04:49:20,0.14,6.24,0.00,24.52,28.01,31.00,13.63,49.85,996.17,2021.86,1680.37,1850.39,2112.22,599.79,581.04,28.04,0000 0000 0000 0000 000000
2018-03-26 04:54:21,0.15,6.25,0.00,24.52,28.03,31.01,13.68,49.75,996.38,2021.64,1678.77,1849.42,2111.10,600.69,581.79,28.09,0000 0000 0000 0000 000000
2018-03-26 04:59:22,0.13,6.26,0.00,24.53,28.06,31.07,13.68,49.71,996.59,2021.55,1677.31,1848.46,2110.13,600.19,581.54,28.14,0000 0000 0000 0000 000000
2018-03-26 05:04:23,0.12,6.26,0.00,24.55,28.07,31.17,13.58,49.66,996.50,2021.16,1675.70,1847.50,2108.93,599.72,580.98,28.19,0000 0000 0000 0000 000000
2018-03-26 05:09:25,0.15,6.27,0.00,24.61,28.09,31.29,13.70,49.66,996.20,2021.10,1674.20,1846.53,2107.82,600.35,581.12,28.24,0000 0000 0000 0000 000000
2018-03-26 05:14:26,0.16,6.28,0.00,24.66,28.10,31.37,13.64,49.73,996.11,2021.07,1672.67,1845.66,2106.72,599.88,580.73,28.29,0000 0000 0000 0000 000000
2018-03-26 05:19:27,0.13,6.29,0.00,24.68,28.10,31.34,13.62,49.72,996.10,2021.06,1671.21,1844.80,2105.65,599.96,580.89,28.34,0000 0000 0000 0000 000000
2018-03-26 05:24:28,0.15,6.30,0.00,24.70,28.09,31.26,13.67,49.80,995.98,2021.04,1669.79,1843.97,2104.66,600.19,580.89,28.39,0000 0000 0000 0000 000000
2018-03-26 05:29:30,0.15,6.30,0.00,24.72,28.07,31.14,13.59,49.83,995.64,2021.09,1668.32,1843.09,2103.61,599.95,580.25,28.44,0000 0000 0000 0000 000000
2018-03-26 05:34:31,0.18,6.31,0.00,24.73,28.06,31.06,13.68,49.99,995.62,2021.16,1666.86,1842.25,2102.61,600.27,580.54,28.49,0000 0000 0000 0000 000000
2018-03-26 05:39:32,0.18,6.32,0.00,24.74,28.04,30.97,13.65,49.96,995.62,2021.40,1665.36,1841.48,2101.60,600.21,580.45,28.54,0000 0000 0000 0000 000000
2018-03-26 05:44:34,0.19,6.33,0.00,24.76,28.01,30.91,13.63,49.98,995.62,2021.67,1663.76,1840.60,2100.55,599.96,580.19,28.59,0000 0000 0000 0000 000000
2018-03-26 05:49:35,0.14,6.34,0.00,24.77,27.99,30.83,13.55,50.00,995.43,2021.83,1662.41,1839.88,2099.59,599.83,579.99,28.64,0000 0000 0000 0000 000000
2018-03-26 05:54:36,0.16,6.35,0.00,24.80,27.96,30.78,13.66,50.05,995.14,2021.90,1660.89,1839.02,2098.57,600.22,580.03,28.69,0000 0000 0000 0000 000000
2018-03-26 05:59:37,0.16,6.36,0.00,24.82,27.94,30.73,13.59,50.02,995.22,2021.97,1659.47,1838.16,2097.62,600.27,580.13,28.74,0000 0000 0000 0000 000000
2018-03-26 06:04:38,0.15,6.36,0.00,24.86,27.91,30.70,13.66,50.11,995.17,2021.97,1657.99,1837.42,2096.65,600.38,580.10,28.79,0000 0000 0000 0000 000000
2018-03-26 06:09:40,0.15,6.37,0.00,24.87,27.89,30.68,13.60,50.08,995.14,2021.98,1656.55,1836.61,2095.69,600.20,579.93,28.84,0000 0000 0000 0000 000000
2018-03-26 06:14:41,0.11,6.38,0.00,24.90,27.87,30.65,13.58,50.13,995.15,2021.99,1655.14,1835.92,2094.76,600.06,579.86,28.89,0000 0000 0000 0000 000000
2018-03-26 06:19:42,0.16,6.39,0.00,24.93,27.85,30.62,13.61,50.06,995.13,2021.99,1653.69,1835.09,2093.86,600.25,579.87,28.94,0000 0000 0000 0000 000000
2018-03-26 06:24:43,0.14,6.39,0.00,24.94,27.82,30.58,13.53,50.01,995.13,2021.99,1652.37,1834.38,2092.97,599.99,579.64,28.99,0000 0000 0000 0000 000000
2018-03-26 06:29:45,0.14,6.40,0.00,24.97,27.81,30.49,13.49,49.99,995.13,2022.02,1650.93,1833.72,2092.02,600.03,579.67,29.04,0000 0000 0000 0000 000000
2018-03-26 06:34:46,0.14,6.41,0.00,24.99,27.80,30.25,13.60,50.10,995.02,2022.06,1649.49,1832.95,2091.06,600.33,579.93,29.09,0000 0000 0000 0000 000000
2018-03-26 06:39:47,0.16,6.42,0.00,25.01,27.77,30.40,13.56,50.63,995.12,2022.14,1648.07,1832.10,2090.10,599.87,579.51,29.14,0000 0000 0000 0000 000000
2018-03-26 06:44:49,0.21,6.42,0.00,25.03,27.76,30.40,13.57,50.41,994.80,2022.37,1646.59,1831.32,2089.13,600.18,579.42,29.19,0000 0000 0000 0000 000000
2018-03-26 06:49:50,0.18,6.43,0.00,25.07,27.75,30.42,13.51,50.36,994.69,2022.63,1644.96,1830.49,2088.16,599.97,579.17,29.24,0000 0000 0000 0000 000000
2018-03-26 06:54:51,0.17,6.44,0.00,25.09,27.74,30.41,13.59,50.48,994.66,2022.91,1643.49,1829.82,2087.19,600.05,579.21,29.29,0000 0000 0000 0000 000000
2018-03-26 06:59:52,0.15,6.45,0.00,25.11,27.72,30.44,13.57,50.42,994.66,2022.93,1641.95,1828.97,2086.17,599.92,578.93,29.34,0000 0000 0000 0000 000000
2018-03-26 07:04:53,0.16,6.46,0.00,25.13,27.72,30.44,13.50,50.42,994.64,2022.97,1640.61,1828.13,2085.26,599.88,578.87,29.39,0000 0000 0000 0000 000000
2018-03-26 07:09:55,0.13,6.46,0.00,25.16,27.71,30.44,13.54,50.38,994.64,2022.93,1639.43,1827.46,2084.30,600.02,578.82,29.44,0000 0000 0000 0000 000000
2018-03-26 07:14:56,0.14,6.47,0.00,25.18,27.70,30.48,13.56,50.39,994.64,2022.90,1637.91,1826.71,2083.32,600.20,579.07,29.49,0000 0000 0000 0000 000000
2018-03-26 07:19:57,0.15,6.48,0.00,25.22,27.70,30.49,13.46,50.34,994.64,2022.96,1636.47,1825.89,2082.31,599.60,578.42,29.54,0000 0000 0000 0000 000000
2018-03-26 07:24:58,0.15,6.49,0.00,25.24,27.70,30.47,13.57,50.30,994.63,2022.94,1635.00,1825.06,2081.32,599.92,578.70,29.59,0000 0000 0000 0000 000000
2018-03-26 07:30:00,0.16,6.50,0.00,25.24,27.68,30.51,13.49,50.23,994.64,2022.95,1633.58,1824.26,2080.37,599.67,578.41,29.64,0000 0000 0000 0000 000000
2018-03-26 07:35:01,0.15,6.50,0.00,25.27,27.67,30.58,13.53,50.18,994.63,2022.96,1632.10,1823.49,2079.32,600.00,578.71,29.69,0000 0000 0000 0000 000000
2018-03-26 07:40:02,0.17,6.51,0.00,25.29,27.67,30.56,13.49,50.24,994.61,2022.97,1630.48,1822.62,2078.32,599.65,578.37,29.75,0000 0000 0000 0000 000000
2018-03-26 07:45:03,0.14,6.52,0.00,25.31,27.67,30.57,13.59,50.33,994.58,2022.97,1628.82,1821.84,2077.34,600.34,578.99,29.80,0000 0000 0000 0000 000000
2018-03-26 07:50:04,0.15,6.53,0.00,25.31,27.67,30.59,13.51,50.11,994.40,2022.99,1627.34,1821.02,2076.46,599.96,578.40,29.85,0000 0000 0000 0000 000000
2018-03-26 07:55:05,0.17,6.54,0.00,25.32,27.65,30.58,13.49,50.20,994.32,2022.99,1625.75,1820.16,2075.48,600.01,578.52,29.90,0000 0000 0000 0000 000000
2018-03-26 08:00:06,0.15,6.55,0.00,25.35,27.65,30.56,13.48,50.14,994.18,2022.99,1624.31,1819.42,2074.52,599.79,578.17,29.95,0000 0000 0000 0000 000000
2018-03-26 08:05:08,0.13,6.55,0.00,25.36,27.65,30.57,13.57,50.28,994.17,2022.99,1622.96,1818.77,2073.60,600.14,578.51,30.00,0000 0000 0000 0000 000000
2018-03-26 08:10:09,0.15,6.56,0.00,25.38,27.65,30.58,13.51,50.22,994.16,2022.99,1621.47,1817.96,2072.62,599.70,577.93,30.05,0000 0000 0000 0000 000000
2018-03-26 08:15:10,0.15,6.57,0.00,25.39,27.65,30.61,13.51,50.17,994.17,2022.99,1620.09,1817.10,2071.61,600.30,578.49,30.10,0000 0000 0000 0000 000000
2018-03-26 08:20:11,0.16,6.58,0.00,25.41,27.65,30.58,13.56,50.27,994.16,2022.99,1618.64,1816.32,2070.65,600.27,578.46,30.15,0000 0000 0000 0000 000000
2018-03-26 08:25:12,0.15,6.58,0.00,25.40,27.65,30.59,13.48,50.23,994.17,2022.99,1617.28,1815.53,2069.66,599.94,578.14,30.20,0000 0000 0000 0000 000000
2018-03-26 08:30:14,0.16,6.59,0.00,25.42,27.65,30.58,13.51,50.09,994.17,2022.99,1615.78,1814.64,2068.62,600.13,578.26,30.25,0000 0000 0000 0000 000000
2018-03-26 08:35:15,0.16,6.60,0.00,25.36,27.65,30.57,13.51,49.98,994.16,2022.99,1614.28,1813.76,2067.57,600.08,578.24,30.30,0000 0000 0000 0000 000000
2018-03-26 08:40:16,0.16,6.61,0.00,25.10,27.63,30.53,13.49,50.16,994.16,2022.99,1612.72,1812.92,2066.57,599.94,578.65,30.35,0000 0000 0000 0000 000000
2018-03-26 08:45:18,0.15,6.62,0.00,24.97,27.62,30.53,13.54,50.17,994.16,2022.99,1611.27,1812.08,2065.54,599.91,578.89,30.40,0000 0000 0000 0000 000000
2018-03-26 08:50:19,0.17,6.63,0.00,24.93,27.60,30.56,13.56,50.17,994.16,2022.99,1609.71,1811.33,2064.59,599.63,578.74,30.45,0000 0000 0000 0000 000000
2018-03-26 08:55:20,0.14,6.63,0.00,24.88,27.58,30.57,13.55,50.16,994.16,2022.99,1608.30,1810.57,2063.63,599.61,578.74,30.50,0000 0000 0000 0000 000000
2018-03-26 09:00:22,0.13,6.64,0.00,24.87,27.57,30.59,13.52,50.13,994.16,2023.01,1606.80,1809.86,2062.78,599.92,579.05,30.55,0000 0000 0000 0000 000000
2018-03-26 09:05:23,0.15,6.65,0.00,24.85,27.55,30.60,13.56,50.08,994.16,2023.04,1605.47,1809.05,2061.87,599.83,579.12,30.60,0000 0000 0000 0000 000000
2018-03-26 09:10:25,0.16,6.66,0.00,24.83,27.53,30.57,13.50,50.05,994.14,2023.06,1604.03,1808.23,2060.90,599.54,578.88,30.65,0000 0000 0000 0000 000000
2018-03-26 09:15:26,0.19,6.66,0.00,24.83,27.52,30.55,13.61,50.14,994.14,2023.22,1602.61,1807.56,2059.98,599.80,579.13,30.70,0000 0000 0000 0000 000000
2018-03-26 09:20:27,0.13,6.67,0.00,24.81,27.50,30.54,13.57,50.17,994.14,2023.31,1601.19,1806.78,2059.04,599.71,578.99,30.75,0000 0000 0000 0000 000000
2018-03-26 09:25:28,0.20,6.68,0.00,24.81,27.48,30.52,13.58,50.15,994.12,2023.60,1599.75,1806.01,2058.12,599.91,579.30,30.80,0000 0000 0000 0000 000000
2018-03-26 09:30:30,0.17,6.69,0.00,24.80,27.47,30.50,13.55,50.18,994.04,2023.82,1598.51,1805.20,2057.18,599.96,579.15,30.85,0000 0000 0000 0000 000000
2018-03-26 09:35:31,0.16,6.70,0.00,24.79,27.45,30.50,13.49,50.13,994.10,2023.89,1597.18,1804.45,2056.28,599.85,579.01,30.90,0000 0000 0000 0000 000000
2018-03-26 09:40:33,0.15,6.71,0.00,24.80,27.45,30.46,13.58,50.18,994.14,2023.94,1595.70,1803.80,2055.36,599.85,579.18,30.95,0000 0000 0000 0000 000000
2018-03-26 09:45:34,0.14,6.71,0.00,24.82,27.42,30.43,13.57,50.18,994.14,2023.98,1594.41,1803.03,2054.49,599.72,579.03,31.00,0000 0000 0000 0000 000000
2018-03-26 09:50:35,0.15,6.72,0.00,24.82,27.42,30.41,13.61,50.17,994.11,2023.99,1593.07,1802.29,2053.64,600.01,579.53,31.05,0000 0000 0000 0000 000000
2018-03-26 09:55:36,0.13,6.73,0.00,24.82,27.41,30.35,13.55,49.97,994.11,2023.99,1591.81,1801.68,2052.80,600.09,579.27,31.10,0000 0000 0000 0000 000000
2018-03-26 10:00:38,0.12,6.74,0.00,24.85,27.40,30.34,13.56,50.18,994.08,2023.99,1590.53,1800.97,2051.92,599.95,579.20,31.15,0000 0000 0000 0000 000000
2018-03-26 10:05:39,0.15,6.74,0.00,24.84,27.40,30.32,13.52,50.14,994.13,2023.99,1589.17,1800.14,2050.98,600.01,579.26,31.20,0000 0000 0000 0000 000000
2018-03-26 10:10:40,0.16,6.75,0.00,24.85,27.39,30.31,13.54,50.09,994.13,2023.99,1587.78,1799.40,2050.06,599.68,578.92,31.25,0000 0000 0000 0000 000000
2018-03-26 10:15:41,0.15,6.76,0.00,24.84,27.38,30.29,13.49,50.13,994.10,2023.99,1586.38,1798.61,2049.08,599.68,578.85,31.30,0000 0000 0000 0000 000000
2018-03-26 10:20:42,0.11,6.77,0.00,24.87,27.37,30.29,13.59,50.09,994.10,2023.99,1585.04,1797.92,2048.14,600.26,579.56,31.35,0000 0000 0000 0000 000000
2018-03-26 10:25:43,0.15,6.77,0.00,24.87,27.37,30.27,13.63,50.20,993.94,2023.99,1583.87,1797.10,2047.16,600.40,579.46,31.40,0000 0000 0000 0000 000000
2018-03-26 10:30:45,0.16,6.78,0.00,24.88,27.37,30.27,13.51,50.23,993.73,2023.99,1582.52,1796.38,2046.61,599.88,578.94,31.45,0000 0000 0000 0000 000000
2018-03-26 10:35:46,0.14,6.79,0.00,24.87,27.37,30.25,13.59,50.11,993.76,2023.99,1581.13,1795.64,2045.68,600.04,579.00,31.50,0000 0000 0000 0000 000000
2018-03-26 10:40:47,0.13,6.80,0.00,24.87,27.36,30.26,13.53,50.25,993.98,2023.99,1579.79,1794.90,2044.78,599.81,578.79,31.55,0000 0000 0000 0000 000000
2018-03-26 10:45:49,0.15,6.80,0.00,24.90,27.35,30.25,13.49,50.06,994.06,2023.99,1578.43,1794.07,2043.84,600.26,579.35,31.60,0000 0000 0000 0000 000000
2018-03-26 10:50:50,0.17,6.81,0.00,24.90,27.35,30.25,13.56,50.18,994.07,2023.99,1576.94,1793.28,2042.83,600.21,579.32,31.65,0000 0000 0000 0000 000000
2018-03-26 10:55:52,0.18,6.82,0.00,24.91,27.35,30.28,13.57,50.00,994.11,2024.00,1575.31,1792.40,2041.81,600.24,579.39,31.70,0000 0000 0000 0000 000000
2018-03-26 11:00:53,0.13,6.83,0.00,24.90,27.35,30.27,13.56,50.08,994.11,2024.00,1573.84,1791.77,2040.89,600.06,579.18,31.75,0000 0000 0000 0000 000000
2018-03-26 11:05:54,0.15,6.84,0.00,24.91,27.35,30.28,13.55,50.17,993.96,2024.00,1572.49,1790.99,2039.98,600.00,579.01,31.80,0000 0000 0000 0000 000000
2018-03-26 11:10:56,0.15,6.84,0.00,24.92,27.35,30.28,13.51,50.20,993.80,2024.01,1571.16,1790.14,2039.03,599.99,579.09,31.85,0000 0000 0000 0000 000000
2018-03-26 11:15:57,0.17,6.85,0.00,24.95,27.35,30.27,13.47,50.10,993.84,2024.01,1569.76,1789.36,2038.04,599.62,578.47,31.90,0000 0000 0000 0000 000000
2018-03-26 11:20:58,0.14,6.86,0.00,24.97,27.37,30.28,13.60,50.36,993.91,2024.01,1568.46,1788.67,2037.10,599.87,578.76,31.95,0000 0000 0000 0000 000000
2018-03-26 11:26:00,0.15,6.87,0.00,24.98,27.37,30.28,13.49,50.17,993.85,2024.02,1566.94,1787.88,2036.14,600.08,578.85,32.00,0000 0000 0000 0000 000000
2018-03-26 11:31:01,0.16,6.88,0.00,24.97,27.37,30.29,13.50,50.23,993.72,2024.01,1565.55,1787.06,2035.21,600.15,578.92,32.05,0000 0000 0000 0000 000000
2018-03-26 11:36:02,0.15,6.88,0.00,24.97,27.37,30.28,13.50,50.16,993.69,2024.02,1564.22,1786.25,2034.29,599.55,578.30,32.10,0000 0000 0000 0000 000000
2018-03-26 11:41:04,0.14,6.89,0.00,24.99,27.37,30.28,13.53,50.28,993.70,2024.01,1562.96,1785.54,2033.36,599.88,578.60,32.15,0000 0000 0000 0000 000000
2018-03-26 11:46:05,0.14,6.90,0.00,24.99,27.38,30.32,13.60,50.31,993.74,2024.01,1561.76,1784.86,2032.44,600.40,578.94,32.20,0000 0000 0000 0000 000000
2018-03-26 11:51:06,0.15,6.91,0.00,25.03,27.40,30.30,13.50,50.20,993.79,2024.00,1560.47,1784.05,2031.56,599.78,578.39,32.25,0000 0000 0000 0000 000000
2018-03-26 11:56:07,0.15,6.91,0.00,25.04,27.40,30.31,13.60,50.33,993.77,2024.00,1559.12,1783.22,2030.58,599.83,578.57,32.31,0000 0000 0000 0000 000000
2018-03-26 12:01:09,0.16,6.92,0.00,25.04,27.40,30.33,13.51,50.25,993.71,2024.00,1557.86,1782.47,2029.62,600.26,578.84,32.36,0000 0000 0000 0000 000000
2018-03-26 12:06:10,0.13,6.93,0.00,25.04,27.42,30.34,13.55,50.32,993.70,2024.00,1556.53,1781.78,2028.71,599.66,578.22,32.41,0000 0000 0000 0000 000000
2018-03-26 12:11:11,0.14,6.94,0.00,25.08,27.42,30.35,13.50,50.21,993.68,2024.00,1555.12,1780.96,2027.70,599.79,578.22,32.46,0000 0000 0000 0000 000000
2018-03-26 12:16:12,0.17,6.94,0.00,25.08,27.42,30.33,13.47,50.10,993.68,2024.00,1553.70,1780.10,2026.77,599.84,578.30,32.51,0000 0000 0000 0000 000000
2018-03-26 12:21:13,0.15,6.95,0.00,25.07,27.44,30.35,13.47,50.17,993.68,2024.00,1552.43,1779.37,2025.80,599.59,578.15,32.56,0000 0000 0000 0000 000000
2018-03-26 12:26:15,0.17,6.96,0.00,25.07,27.45,30.37,13.56,50.23,993.68,2023.99,1550.88,1778.57,2024.77,600.04,578.58,32.61,0000 0000 0000 0000 000000
2018-03-26 12:31:16,0.15,6.97,0.00,25.07,27.45,30.37,13.58,50.08,993.69,2023.98,1549.47,1777.72,2023.83,600.00,578.63,32.66,0000 0000 0000 0000 000000
2018-03-26 12:36:17,0.11,6.98,0.00,25.07,27.46,30.39,13.49,50.15,993.68,2023.97,1548.25,1776.99,2022.91,599.73,578.35,32.71,0000 0000 0000 0000 000000
2018-03-26 12:41:19,0.17,6.98,0.00,25.07,27.47,30.40,13.52,50.01,993.68,2023.93,1546.86,1776.15,2021.90,599.75,578.26,32.76,0000 0000 0000 0000 000000
2018-03-26 12:46:20,0.17,6.99,0.00,25.09,27.47,30.41,13.54,50.08,993.68,2023.91,1545.44,1775.35,2020.89,600.03,578.54,32.81,0000 0000 0000 0000 000000
2018-03-26 12:51:21,0.17,7.00,0.00,25.08,27.48,30.40,13.58,50.05,993.67,2023.87,1543.91,1774.47,2019.90,600.10,578.62,32.86,0000 0000 0000 0000 000000
2018-03-26 12:56:22,0.15,7.01,0.00,25.10,27.50,30.43,13.52,50.08,993.67,2023.81,1542.51,1773.69,2018.89,600.22,578.74,32.91,0000 0000 0000 0000 000000
2018-03-26 13:01:23,0.11,7.02,0.00,25.09,27.50,30.40,13.51,50.10,993.67,2023.71,1541.11,1772.87,2017.91,600.12,578.60,32.96,0000 0000 0000 0000 000000